Change the Weather History Date:

Tuesday, November 20, 2012

  Actual Average Record
Temperature  
Mean Temperature 42 °F -  
Max Temperature 55 °F 39 °F 60 °F (1953)
Min Temperature 30 °F 23 °F 3 °F (1964)
Degree Days  
Heating Degree Days 22    
Moisture  
Dew Point 36 °F    
Average Humidity 86    
Maximum Humidity 100    
Minimum Humidity 51    
Precipitation  
Precipitation 0.00 in - - ()
Sea Level Pressure  
Sea Level Pressure 30.10 in    
Wind  
Wind Speed 1 mph (North)    
Max Wind Speed 8 mph    
Max Gust Speed -    
Visibility 5 miles    
Events Fog    
Averages and records for this station are not official NWS values.
T = Trace of Precipitation, MM = Missing Value Source: NWS Daily Summary

Daily Weather History Graph

Daily Weather History Graph

Search for Another Location

Airport or City:

Trip Planner

Search our weather history database for the weather conditions in past years. The results will help you decide how hot, cold, wet, or windy it might be!

Date:

Astronomy

Nov. 20, 2012 Rise Set
Actual Time 6:59 AM CST 4:16 PM CST
Civil Twilight 6:27 AM CST 4:48 PM CST
Nautical Twilight 5:50 AM CST 5:25 PM CST
Astronomical Twilight 5:15 AM CST 6:00 PM CST
Moon 12:23 PM CST (11/20) No Moon Set
Length of Visible Light 10h 21m
Length of Day
9h 16m
First Quarter, 51% of the Moon is Illuminated
Nov 20
First Quarter
Nov 28
Full
Dec 6
Last Quarter
Dec 13
New
Dec 19
First Quarter

Hourly Weather History & Observations

Time (CST) Temp. Windchill Dew Point Humidity Pressure Visibility Wind Dir Wind Speed Gust Speed Precip Events Conditions
12:54 AM 42.1 °F - 37.0 °F 82% 30.06 in 7.0 mi Calm Calm - N/A   Overcast
1:54 AM 39.0 °F - 35.1 °F 86% 30.06 in 6.0 mi Calm Calm - N/A   Overcast
2:54 AM 39.9 °F - 36.0 °F 86% 30.06 in 6.0 mi Calm Calm - N/A   Overcast
3:54 AM 37.9 °F - 35.1 °F 89% 30.06 in 6.0 mi Calm Calm - N/A   Overcast
4:54 AM 39.0 °F - 36.0 °F 89% 30.07 in 6.0 mi Calm Calm - N/A   Overcast
6:54 AM 39.0 °F - 37.0 °F 93% 30.10 in 5.0 mi Calm Calm - N/A   Overcast
7:31 AM 39.2 °F - 37.4 °F 93% 30.06 in 2.5 mi Calm Calm - N/A   Overcast
7:42 AM 39.2 °F - 37.4 °F 93% 30.06 in 3.0 mi Calm Calm - N/A   Overcast
7:54 AM 39.9 °F - 37.9 °F 93% 30.09 in 3.0 mi Calm Calm - N/A   Overcast
8:04 AM 39.2 °F - 37.4 °F 93% 30.06 in 2.5 mi Calm Calm - N/A   Overcast
8:40 AM 41.0 °F - 37.4 °F 87% 30.07 in 4.0 mi Calm Calm - N/A   Partly Cloudy
8:54 AM 44.1 °F 41.5 °F 39.0 °F 82% 30.10 in 5.0 mi NW 4.6 mph - N/A   Haze
9:54 AM 48.0 °F - 39.0 °F 71% 30.11 in 9.0 mi NNW 8.1 mph - N/A   Clear
10:54 AM 52.0 °F - 39.0 °F 61% 30.11 in 10.0 mi NW 3.5 mph - N/A   Clear
11:54 AM 55.0 °F - 39.0 °F 55% 30.09 in 10.0 mi NNE 5.8 mph - N/A   Clear
12:54 PM 55.0 °F - 39.0 °F 55% 30.08 in 10.0 mi North 4.6 mph - N/A   Clear
1:54 PM 55.9 °F - 39.0 °F 53% 30.09 in 10.0 mi North 5.8 mph - N/A   Partly Cloudy
2:54 PM 55.9 °F - 37.9 °F 51% 30.09 in 10.0 mi North 4.6 mph - N/A   Clear
3:54 PM 50.0 °F - 37.9 °F 63% 30.09 in 10.0 mi NE 3.5 mph - N/A   Clear
4:54 PM 39.9 °F - 34.0 °F 79% 30.12 in 10.0 mi Calm Calm - N/A   Clear
5:54 PM 41.0 °F 39.0 °F 35.1 °F 79% 30.14 in 10.0 mi NNW 3.5 mph - N/A   Clear
6:54 PM 37.9 °F - 35.1 °F 89% 30.16 in 10.0 mi Calm Calm - N/A   Clear
7:54 PM 36.0 °F - 35.1 °F 97% 30.14 in 7.0 mi Calm Calm - N/A   Clear
8:54 PM 33.1 °F - 32.0 °F 96% 30.13 in 2.5 mi Calm Calm - N/A   Clear
9:02 PM 33.8 °F - 30.2 °F 87% 30.09 in 5.0 mi Calm Calm - N/A   Partly Cloudy
9:19 PM 30.2 °F - 28.4 °F 93% 30.10 in 3.0 mi Calm Calm - N/A   Mostly Cloudy
9:27 PM 33.8 °F - 32.0 °F 93% 30.10 in 2.0 mi Calm Calm - N/A   Overcast
9:35 PM 33.8 °F - 33.8 °F 100% 30.10 in 5.0 mi Calm Calm - N/A   Overcast
9:54 PM 37.0 °F - 36.0 °F 96% 30.15 in 3.0 mi Calm Calm - N/A   Overcast
10:03 PM 37.4 °F - 37.4 °F 100% 30.11 in 2.0 mi Calm Calm - N/A   Overcast
10:10 PM 37.4 °F - 37.4 °F 100% 30.12 in 1.8 mi Calm Calm - N/A   Overcast
10:17 PM 37.4 °F - 37.4 °F 100% 30.12 in 2.0 mi Calm Calm - N/A   Overcast
10:23 PM 37.4 °F - 37.4 °F 100% 30.12 in 0.8 mi Calm Calm - N/A   Overcast
10:34 PM 39.2 °F - 37.4 °F 93% 30.12 in 0.2 mi Calm Calm - N/A Fog Fog
10:41 PM 39.2 °F 37.0 °F 37.4 °F 93% 30.12 in 0.2 mi ESE 3.5 mph - N/A Fog Fog
10:54 PM 37.9 °F 35.5 °F 37.9 °F 100% 30.14 in 0.2 mi ESE 3.5 mph - N/A Fog Fog
11:54 PM 37.9 °F - 37.9 °F 100% 30.14 in 0.2 mi Calm Calm - N/A Fog Fog